CZ-6A DEB, 54346

Orbit data source: Space-Track

CZ-6A DEB, 54346 is space debris in SSO originally from a launch on Fri, 11 Nov 2022 UTC launched from the Taiyaun Space Center, China (TSC). Debris objects in space refer to the collection of defunct objects orbiting the Earth. Examples of debris include non-operational satellites, rocket bodies, and fragments generated from explosions, collisions, or faulty payload assembly.

Loading next visibility...
Identifier
54346, 2022-151CR
Orbit
SSO
Country
Flag of CNCN / PRC
Related business
Manufacturer
SAST
Mission
Spacecraft
Bus & Motor
Unknown
Mass
Unknown
Launch date (UTC)
2022-11-11 (4 years ago)
Launch vehicle
Unknown
Launch site
Taiyaun Space Center, China (TSC)
Object type
Payload
Rocket body
Debris
Shape & HBR
Unknown shape, 0.2 m
Radar Cross Section
Medium (>0.1 m² and <1 m²)

Expand to show TLE details & history
Last TLE update: 2 days ago

TLE from 2 days ago
0 CZ-6A DEB
1 54346U 22151CR  26171.24945558  .00079399  00000-0  32386-2 0  9993
2 54346  98.5461 275.8521 0031935 100.0906 260.3933 15.23640150193246
Epoch: 2026-06-20T05:59Z
TLE epoch observation values (Epoch: 2026-06-20T05:59:12.962Z)
Latitude
-0°
Longitude
-82.4187°
Altitude
501.664 km
Speed
7.611 km/s
True Right ascension
18h 23m 24s
True Declination
0° 00' 00"
Sunlit
Object was in full shadow at epoch
Visualization orbit readout
Latitude
Unknown
Longitude
Unknown
Altitude
Unknown
Speed
Unknown
Apparent Right ascension
Unknown
Apparent Declination
Unknown
Sunlit
N/A
Visualization observer readout
Local Sidereal Time
21:24:18
Azimuth
Unknown
Elevation
Unknown
Doppler factor
Unknown
Orbital elements
Apogee altitude
513.825 km
Perigee altitude
469.946 km
Semi-major axis
6,870.022 km
Eccentricity
0.00319
Inclination
98.5461°
RAAN
275.8521°
Arg. of periapsis
100.0906°
True anomaly
260.03273°
Mean anomaly
260.3933°
Eccentric anomaly
260.21299°
Mean motion
3.81159 °/min
Orbital period
94.45 mins
BSTAR
0.0032386
Loading maneuver chart data...
Computing Atmospheric mass density...
Loading historical data...
Loading historical data...
Loading historical data...
Loading historical data...
Loading historical data...
Loading historical data...
Loading historical data...

Documentation

Showing up to 5 results
|